Oxford, NC

6:16 AM EST on December 13, 2019 (GMT -0500)
Henderson-Oxford

Weather History for KHNZ - November, 2019

Change the Weather History Date:

Saturday, November 16, 2019

  Actual Average (WUND) Record (WUND)
Temperature  
Mean Temperature 41 °F -  
Max Temperature 45 °F - - (-1)
Min Temperature 37 °F - - (-1)
Degree Days  
Heating Degree Days 24    
Moisture  
Dew Point 28 °F    
Average Humidity 60    
Maximum Humidity 66    
Minimum Humidity 49    
Precipitation  
Precipitation 0.00 in - - ()
Sea Level Pressure  
Sea Level Pressure 30.16 in    
Wind  
Wind Speed 12 mph (NNE)    
Max Wind Speed 20 mph    
Max Gust Speed 31 mph    
Visibility 10 miles    
Events      
Averages and records for this station are not official NWS values.
T = Trace of Precipitation, MM = Missing Value Source: NWS Daily Summary

Daily Weather History Graph

Daily Weather History Graph

Search for Another Location

Airport or City:

Astronomy

Nov. 16, 2019 Rise Set
Actual Time 6:52 AM EST 5:05 PM EST
Civil Twilight 6:24 AM EST 5:32 PM EST
Nautical Twilight 5:53 AM EST 6:03 PM EST
Astronomical Twilight 5:22 AM EST 6:34 PM EST
Moon 8:39 PM EST (11/16) 10:41 AM EST (11/16)
Length of Visible Light 11h 08m
Length of Day
10h 13m
Waning Gibbous, 82% of the Moon is Illuminated
Nov 16
Waning Gibbous
Nov 19
Last Quarter
Nov 26
New
Dec 4
First Quarter
Dec 12
Full

Hourly Weather History & Observations

Time (EST) Temp. Windchill Dew Point Humidity Pressure Visibility Wind Dir Wind Speed Gust Speed Precip Events Conditions
12:35 AM 43.2 °F 39.0 °F 30.0 °F 60% 30.11 in 10.0 mi NNE 6.9 mph - N/A   Mostly Cloudy
12:55 AM 43.3 °F - 29.7 °F 59% 30.10 in 10.0 mi Calm Calm - N/A   Scattered Clouds
1:35 AM 43.3 °F 37.2 °F 28.4 °F 56% 30.09 in 10.0 mi NNE 11.5 mph - N/A   Mostly Cloudy
1:55 AM 43.3 °F 37.2 °F 27.9 °F 54% 30.09 in 10.0 mi NNE 11.5 mph 19.6 mph N/A   Overcast
2:15 AM 43.3 °F 37.7 °F 27.5 °F 54% 30.10 in 10.0 mi NNE 10.4 mph 16.1 mph N/A   Overcast
2:35 AM 43.7 °F 37.7 °F 26.6 °F 51% 30.10 in 10.0 mi NNE 11.5 mph 17.3 mph N/A   Overcast
3:15 AM 43.2 °F 35.6 °F 25.0 °F 49% 30.09 in 10.0 mi NNE 16.1 mph 24.2 mph N/A   Overcast
3:55 AM 42.3 °F 36.3 °F 24.8 °F 50% 30.09 in 10.0 mi NNE 10.4 mph 18.4 mph N/A   Overcast
4:55 AM 41.5 °F 33.8 °F 24.4 °F 51% 30.10 in 10.0 mi NNE 15.0 mph 26.5 mph N/A   Mostly Cloudy
5:15 AM 41.4 °F 33.6 °F 24.4 °F 51% 30.11 in 10.0 mi NNE 15.0 mph 25.3 mph N/A   Overcast
5:55 AM 40.8 °F 32.9 °F 25.0 °F 53% 30.12 in 10.0 mi NNE 15.0 mph 31.1 mph N/A   Overcast
6:15 AM 40.1 °F 32.4 °F 25.3 °F 56% 30.14 in 10.0 mi NNE 13.8 mph 19.6 mph N/A   Overcast
6:35 AM 39.6 °F 31.7 °F 25.7 °F 58% 30.15 in 10.0 mi North 13.8 mph 19.6 mph N/A   Overcast
6:55 AM 39.2 °F 33.0 °F 25.9 °F 59% 30.16 in 10.0 mi NNE 9.2 mph 18.4 mph N/A   Overcast
7:15 AM 38.7 °F 29.8 °F 26.1 °F 61% 30.16 in 10.0 mi NNE 16.1 mph 23.0 mph N/A   Overcast
7:35 AM 38.3 °F 30.9 °F 26.2 °F 62% 30.17 in 10.0 mi NNE 11.5 mph 21.9 mph N/A   Overcast
7:55 AM 38.3 °F 31.4 °F 26.4 °F 62% 30.18 in 10.0 mi NE 10.4 mph 21.9 mph N/A   Overcast
8:35 AM 38.3 °F 29.0 °F 27.1 °F 64% 30.19 in 10.0 mi NNE 17.3 mph 26.5 mph N/A   Mostly Cloudy
8:55 AM 38.8 °F 31.6 °F 27.9 °F 65% 30.19 in 10.0 mi North 11.5 mph 20.7 mph N/A   Overcast
9:15 AM 39.4 °F 32.3 °F 27.5 °F 62% 30.19 in 10.0 mi NNE 11.5 mph 24.2 mph N/A   Overcast
9:35 AM 39.4 °F 32.3 °F 27.3 °F 62% 30.21 in 10.0 mi NNE 11.5 mph 24.2 mph N/A   Mostly Cloudy
9:55 AM 40.1 °F 32.7 °F 27.5 °F 61% 30.22 in 10.0 mi NNE 12.7 mph 24.2 mph N/A   Mostly Cloudy
10:15 AM 41.4 °F 34.0 °F 27.3 °F 57% 30.22 in 10.0 mi NNE 13.8 mph 20.7 mph N/A   Mostly Cloudy
10:35 AM 40.8 °F 34.1 °F 26.8 °F 57% 30.22 in 10.0 mi NNE 11.5 mph 27.6 mph N/A   Mostly Cloudy
11:15 AM 41.5 °F 33.8 °F 27.1 °F 57% 30.21 in 10.0 mi North 15.0 mph 23.0 mph N/A   Scattered Clouds
11:55 AM 43.7 °F 36.6 °F 28.2 °F 54% 30.19 in 10.0 mi NNE 15.0 mph 25.3 mph N/A   Scattered Clouds
12:35 PM 44.6 °F 36.6 °F 29.7 °F 56% 30.17 in 10.0 mi NNE 19.6 mph 27.6 mph N/A   Scattered Clouds
12:55 PM 44.4 °F 36.4 °F 30.0 °F 57% 30.16 in 10.0 mi NE 19.6 mph 26.5 mph N/A   Scattered Clouds
1:15 PM 45.0 °F 38.2 °F 30.7 °F 57% 30.16 in 10.0 mi NNE 15.0 mph 23.0 mph N/A   Mostly Cloudy
1:35 PM 43.9 °F 36.2 °F 30.6 °F 59% 30.17 in 10.0 mi NNE 17.3 mph 26.5 mph N/A   Mostly Cloudy
1:55 PM 44.4 °F 37.2 °F 31.5 °F 60% 30.17 in 10.0 mi NNE 16.1 mph 27.6 mph N/A   Mostly Cloudy
2:15 PM 44.1 °F 36.2 °F 31.1 °F 60% 30.16 in 10.0 mi NNE 18.4 mph 28.8 mph N/A   Overcast
2:35 PM 44.2 °F 36.7 °F 31.1 °F 60% 30.15 in 10.0 mi NNE 17.3 mph 28.8 mph N/A   Overcast
2:55 PM 43.7 °F 35.7 °F 30.9 °F 61% 30.16 in 10.0 mi NE 18.4 mph 31.1 mph N/A   Mostly Cloudy
3:15 PM 43.2 °F 35.9 °F 30.9 °F 62% 30.16 in 10.0 mi NNE 15.0 mph 24.2 mph N/A   Mostly Cloudy
3:35 PM 42.8 °F 35.4 °F 31.1 °F 63% 30.17 in 10.0 mi NNE 15.0 mph 21.9 mph N/A   Overcast
3:55 PM 42.3 °F 34.4 °F 31.3 °F 65% 30.17 in 10.0 mi NE 16.1 mph 20.7 mph N/A   Overcast
4:15 PM 41.9 °F 35.9 °F 31.1 °F 66% 30.17 in 10.0 mi NNE 10.4 mph 23.0 mph N/A   Mostly Cloudy
4:35 PM 41.5 °F 33.8 °F 30.9 °F 66% 30.18 in 10.0 mi NNE 15.0 mph 23.0 mph N/A   Overcast
4:55 PM 41.0 °F 32.5 °F 30.0 °F 65% 30.18 in 10.0 mi NNE 17.3 mph 26.5 mph N/A   Overcast
5:15 PM 40.5 °F 31.8 °F 29.8 °F 66% 30.18 in 10.0 mi NNE 17.3 mph 21.9 mph N/A   Overcast
5:35 PM 40.1 °F 32.0 °F 29.1 °F 65% 30.18 in 10.0 mi NE 15.0 mph 26.5 mph N/A   Overcast
5:55 PM 40.1 °F 33.2 °F 28.9 °F 64% 30.18 in 10.0 mi NNE 11.5 mph 19.6 mph N/A   Overcast
6:15 PM 40.1 °F 32.7 °F 28.4 °F 63% 30.18 in 10.0 mi NNE 12.7 mph 29.9 mph N/A   Mostly Cloudy
6:35 PM 39.7 °F 31.9 °F 28.4 °F 64% 30.18 in 10.0 mi NNE 13.8 mph 25.3 mph N/A   Mostly Cloudy
6:55 PM 39.6 °F 32.5 °F 28.0 °F 63% 30.18 in 10.0 mi NNE 11.5 mph 27.6 mph N/A   Mostly Cloudy
7:15 PM 39.6 °F 32.5 °F 27.5 °F 62% 30.18 in 10.0 mi North 11.5 mph 24.2 mph N/A   Overcast
7:35 PM 39.2 °F 32.0 °F 27.3 °F 62% 30.18 in 10.0 mi NNE 11.5 mph 18.4 mph N/A   Overcast
7:55 PM 38.8 °F 30.4 °F 26.6 °F 61% 30.19 in 10.0 mi NNE 15.0 mph 21.9 mph N/A   Overcast
8:15 PM 38.8 °F 31.6 °F 26.4 °F 61% 30.19 in 10.0 mi NNE 11.5 mph 23.0 mph N/A   Overcast
8:35 PM 38.7 °F 30.5 °F 26.4 °F 61% 30.19 in 10.0 mi North 13.8 mph 21.9 mph N/A   Overcast
8:55 PM 38.5 °F 29.9 °F 26.2 °F 61% 30.18 in 10.0 mi North 15.0 mph 20.7 mph N/A   Overcast
9:15 PM 38.3 °F 31.4 °F 26.1 °F 61% 30.18 in 10.0 mi North 10.4 mph 23.0 mph N/A   Mostly Cloudy
9:35 PM 38.3 °F 29.7 °F 25.9 °F 61% 30.18 in 10.0 mi NNE 15.0 mph 19.6 mph N/A   Overcast
9:55 PM 38.3 °F 30.9 °F 25.9 °F 61% 30.18 in 10.0 mi NNE 11.5 mph 24.2 mph N/A   Mostly Cloudy
10:15 PM 37.9 °F 30.0 °F 25.7 °F 61% 30.18 in 10.0 mi NNE 12.7 mph 20.7 mph N/A   Mostly Cloudy
10:35 PM 37.9 °F 30.5 °F 25.7 °F 61% 30.18 in 10.0 mi NNE 11.5 mph 24.2 mph N/A   Overcast
10:55 PM 37.8 °F 29.8 °F 25.7 °F 62% 30.18 in 10.0 mi NNE 12.7 mph 19.6 mph N/A   Overcast
11:15 PM 37.6 °F 29.6 °F 25.9 °F 63% 30.18 in 10.0 mi NNE 12.7 mph 20.7 mph N/A   Mostly Cloudy
11:35 PM 37.6 °F 29.6 °F 26.2 °F 64% 30.17 in 10.0 mi NNE 12.7 mph 20.7 mph N/A   Overcast
11:55 PM 37.4 °F 29.8 °F 26.1 °F 64% 30.17 in 10.0 mi NNE 11.5 mph 20.7 mph N/A   Overcast